TimeEDT,TemperatureF,Dew PointF,Humidity,Sea Level PressureIn,VisibilityMPH,Wind Direction,Wind SpeedMPH,Gust SpeedMPH,PrecipitationIn,Events,Conditions,WindDirDegrees,DateUTC
12:53 AM,48.9,45.0,86,30.27,10.0,NNE,4.6,-,N/A,,Clear,20,2012-10-09 04:53:00
1:53 AM,48.9,45.0,86,30.26,10.0,NNE,4.6,-,N/A,,Partly Cloudy,20,2012-10-09 05:53:00
2:53 AM,48.0,44.1,86,30.24,10.0,NNE,5.8,-,N/A,,Partly Cloudy,20,2012-10-09 06:53:00
4:53 AM,46.9,44.1,90,30.24,10.0,North,3.5,-,N/A,,Mostly Cloudy,360,2012-10-09 08:53:00
5:53 AM,46.9,44.1,90,30.24,10.0,NNE,4.6,-,N/A,,Partly Cloudy,20,2012-10-09 09:53:00
6:53 AM,48.0,44.1,86,30.25,10.0,NNE,4.6,-,N/A,,Overcast,20,2012-10-09 10:53:00
7:53 AM,48.9,45.0,86,30.25,10.0,NNE,5.8,-,N/A,,Overcast,20,2012-10-09 11:53:00
8:53 AM,50.0,45.0,83,30.24,10.0,North,6.9,-,0.00,Rain,Light Rain,10,2012-10-09 12:53:00
9:53 AM,51.1,46.0,83,30.25,10.0,NNE,5.8,-,0.00,,Overcast,20,2012-10-09 13:53:00
10:53 AM,55.0,46.9,74,30.23,10.0,North,8.1,-,N/A,,Overcast,360,2012-10-09 14:53:00
11:51 AM,55.4,48.2,77,30.21,10.0,NNE,8.1,-,N/A,,Overcast,20,2012-10-09 15:51:00
11:53 AM,55.9,48.0,75,30.21,10.0,NNE,5.8,-,N/A,,Overcast,30,2012-10-09 15:53:00
12:53 PM,55.9,48.0,75,30.20,10.0,Variable,6.9,-,N/A,,Overcast,0,2012-10-09 16:53:00
1:53 PM,55.9,48.0,75,30.18,10.0,NNE,11.5,-,N/A,,Overcast,20,2012-10-09 17:53:00
2:53 PM,57.0,48.9,74,30.17,10.0,NE,9.2,16.1,N/A,,Overcast,40,2012-10-09 18:53:00
3:08 PM,55.4,48.2,77,30.16,10.0,NE,8.1,17.3,N/A,,Overcast,50,2012-10-09 19:08:00
3:53 PM,57.0,50.0,77,30.16,10.0,NNE,5.8,-,N/A,,Overcast,20,2012-10-09 19:53:00
4:53 PM,57.0,50.0,77,30.14,10.0,Variable,6.9,-,N/A,,Overcast,0,2012-10-09 20:53:00
5:53 PM,55.9,50.0,80,30.15,10.0,North,3.5,-,N/A,,Overcast,10,2012-10-09 21:53:00
6:22 PM,55.4,50.0,82,30.14,10.0,North,5.8,-,N/A,,Overcast,10,2012-10-09 22:22:00
6:53 PM,55.9,50.0,80,30.14,10.0,North,4.6,-,N/A,,Overcast,10,2012-10-09 22:53:00
7:53 PM,55.0,48.9,80,30.14,10.0,North,4.6,-,N/A,,Overcast,10,2012-10-09 23:53:00
8:53 PM,55.0,48.9,80,30.15,10.0,Calm,Calm,-,N/A,,Overcast,0,2012-10-10 00:53:00
9:53 PM,55.0,48.0,77,30.14,10.0,NE,4.6,-,N/A,,Overcast,50,2012-10-10 01:53:00
10:53 PM,55.0,48.0,77,30.12,10.0,NNE,6.9,-,N/A,,Overcast,30,2012-10-10 02:53:00
11:53 PM,54.0,46.9,77,30.12,10.0,Calm,Calm,-,N/A,,Overcast,0,2012-10-10 03:53:00